Time,TemperatureF,DewpointF,PressureIn,WindDirection,WindDirectionDegrees,WindSpeedMPH,WindSpeedGustMPH,Humidity,HourlyPrecipIn,Conditions,Clouds,dailyrainin,SoftwareType,DateUTC
2013-04-07 00:06:00,58.2,54.0,30.00,NNW,327,0.0,0.0,86,0.00,,,0.00,Wunderground v.1.13,2013-04-07 07:06:00,
2013-04-07 00:11:00,58.0,53.8,30.00,NW,326,0.0,0.0,86,0.00,,,0.00,Wunderground v.1.13,2013-04-07 07:11:00,
2013-04-07 00:16:00,57.9,53.7,30.00,NNW,327,0.0,0.0,86,0.00,,,0.00,Wunderground v.1.13,2013-04-07 07:16:00,
2013-04-07 00:21:00,57.9,53.7,30.00,NW,326,0.0,0.0,86,0.00,,,0.00,Wunderground v.1.13,2013-04-07 07:21:00,
2013-04-07 00:31:00,57.2,53.4,30.00,NNW,327,0.0,0.0,87,0.00,,,0.00,Wunderground v.1.13,2013-04-07 07:31:00,
2013-04-07 00:36:00,56.9,53.1,30.00,NW,326,0.0,0.0,87,0.00,,,0.00,Wunderground v.1.13,2013-04-07 07:36:00,
2013-04-07 00:41:00,56.7,52.9,30.00,NNW,327,0.0,0.0,87,0.00,,,0.00,Wunderground v.1.13,2013-04-07 07:41:00,
2013-04-07 00:51:00,57.0,53.5,30.00,NW,326,0.0,0.0,88,0.00,,,0.00,Wunderground v.1.13,2013-04-07 07:51:00,
2013-04-07 01:06:00,57.0,53.5,29.99,NNW,327,0.0,0.0,88,0.00,,,0.00,Wunderground v.1.13,2013-04-07 08:06:00,
2013-04-07 01:16:00,56.4,52.9,29.99,NNW,327,0.0,0.0,88,0.00,,,0.00,Wunderground v.1.13,2013-04-07 08:16:00,
2013-04-07 01:31:00,55.5,52.0,30.00,NNW,327,0.0,0.0,88,0.00,,,0.00,Wunderground v.1.13,2013-04-07 08:31:00,
2013-04-07 01:36:00,55.6,52.4,29.99,NW,326,0.0,0.0,89,0.00,,,0.00,Wunderground v.1.13,2013-04-07 08:36:00,
2013-04-07 01:56:00,54.9,51.7,29.99,SSW,198,0.0,3.0,89,0.00,,,0.00,Wunderground v.1.13,2013-04-07 08:56:00,
2013-04-07 02:01:00,55.4,52.5,29.98,South,182,2.0,2.0,90,0.00,,,0.00,Wunderground v.1.13,2013-04-07 09:01:00,
2013-04-07 02:16:00,56.5,53.0,29.98,South,182,0.0,0.0,88,0.00,,,0.00,Wunderground v.1.13,2013-04-07 09:16:00,
2013-04-07 02:21:00,56.7,53.2,29.98,South,182,0.0,0.0,88,0.00,,,0.00,Wunderground v.1.13,2013-04-07 09:21:00,
2013-04-07 02:31:00,56.9,53.4,29.98,South,182,0.0,0.0,88,0.00,,,0.00,Wunderground v.1.13,2013-04-07 09:31:00,
2013-04-07 02:41:00,56.8,53.3,29.97,South,182,0.0,0.0,88,0.00,,,0.00,Wunderground v.1.13,2013-04-07 09:41:00,
2013-04-07 02:51:00,56.0,52.2,29.97,South,182,0.0,0.0,87,0.00,,,0.00,Wunderground v.1.13,2013-04-07 09:51:00,
2013-04-07 03:01:00,55.1,51.3,29.97,South,182,0.0,0.0,87,0.00,,,0.00,Wunderground v.1.13,2013-04-07 10:01:00,
2013-04-07 03:06:00,54.9,51.1,29.97,South,182,0.0,0.0,87,0.00,,,0.00,Wunderground v.1.13,2013-04-07 10:06:00,
2013-04-07 03:11:00,55.0,51.2,29.97,South,182,0.0,0.0,87,0.00,,,0.00,Wunderground v.1.13,2013-04-07 10:11:00,
2013-04-07 03:26:00,54.9,51.1,29.97,South,182,0.0,0.0,87,0.00,,,0.00,Wunderground v.1.13,2013-04-07 10:26:00,
2013-04-07 03:31:00,55.0,51.5,29.96,South,182,0.0,0.0,88,0.00,,,0.00,Wunderground v.1.13,2013-04-07 10:31:00,
2013-04-07 03:41:00,54.5,51.0,29.96,South,182,0.0,0.0,88,0.00,,,0.00,Wunderground v.1.13,2013-04-07 10:41:00,
2013-04-07 03:46:00,54.3,50.8,29.96,South,182,0.0,0.0,88,0.00,,,0.00,Wunderground v.1.13,2013-04-07 10:46:00,
2013-04-07 03:51:00,54.2,50.7,29.96,South,182,0.0,0.0,88,0.00,,,0.00,Wunderground v.1.13,2013-04-07 10:51:00,
2013-04-07 04:06:00,53.8,50.3,29.96,South,182,0.0,0.0,88,0.00,,,0.00,Wunderground v.1.13,2013-04-07 11:06:00,
2013-04-07 04:11:00,54.1,50.6,29.96,South,182,0.0,0.0,88,0.00,,,0.00,Wunderground v.1.13,2013-04-07 11:11:00,
2013-04-07 04:16:00,53.7,50.5,29.96,South,182,0.0,0.0,89,0.00,,,0.00,Wunderground v.1.13,2013-04-07 11:16:00,
2013-04-07 04:21:00,53.4,50.2,29.96,South,182,0.0,0.0,89,0.00,,,0.00,Wunderground v.1.13,2013-04-07 11:21:00,
2013-04-07 04:31:00,53.5,50.3,29.96,South,182,0.0,0.0,89,0.00,,,0.00,Wunderground v.1.13,2013-04-07 11:31:00,
2013-04-07 04:46:00,53.2,50.3,29.95,South,182,0.0,0.0,90,0.00,,,0.00,Wunderground v.1.13,2013-04-07 11:46:00,
2013-04-07 04:56:00,53.1,50.2,29.95,South,184,0.0,0.0,90,0.00,,,0.00,Wunderground v.1.13,2013-04-07 11:56:00,
2013-04-07 05:06:00,53.3,50.4,29.95,South,183,0.0,0.0,90,0.00,,,0.00,Wunderground v.1.13,2013-04-07 12:06:00,
2013-04-07 05:41:00,53.3,50.7,29.96,South,184,0.0,0.0,91,0.00,,,0.00,Wunderground v.1.13,2013-04-07 12:41:00,
2013-04-07 05:46:00,53.1,50.5,29.96,South,183,0.0,0.0,91,0.00,,,0.00,Wunderground v.1.13,2013-04-07 12:46:00,
2013-04-07 05:51:00,53.1,50.5,29.96,South,185,1.0,1.0,91,0.00,,,0.00,Wunderground v.1.13,2013-04-07 12:51:00,
2013-04-07 05:56:00,53.6,51.0,29.95,South,186,1.0,1.0,91,0.00,,,0.00,Wunderground v.1.13,2013-04-07 12:56:00,
2013-04-07 06:01:00,53.4,50.8,29.95,South,185,0.0,0.0,91,0.00,,,0.00,Wunderground v.1.13,2013-04-07 13:01:00,
2013-04-07 06:11:00,53.4,50.8,29.95,South,185,1.0,1.0,91,0.00,,,0.00,Wunderground v.1.13,2013-04-07 13:11:00,
2013-04-07 06:16:00,53.3,50.7,29.96,South,185,0.0,0.0,91,0.00,,,0.00,Wunderground v.1.13,2013-04-07 13:16:00,
2013-04-07 06:21:00,53.4,50.8,29.96,South,184,0.0,0.0,91,0.00,,,0.00,Wunderground v.1.13,2013-04-07 13:21:00,
2013-04-07 06:41:00,53.8,51.2,29.96,South,182,1.0,1.0,91,0.00,,,0.00,Wunderground v.1.13,2013-04-07 13:41:00,
2013-04-07 06:51:00,54.1,51.5,29.96,South,191,1.0,1.0,91,0.00,,,0.00,Wunderground v.1.13,2013-04-07 13:51:00,
2013-04-07 07:01:00,54.1,51.5,29.97,South,181,1.0,1.0,91,0.00,,,0.00,Wunderground v.1.13,2013-04-07 14:01:00,
2013-04-07 07:11:00,54.2,51.6,29.98,South,180,0.0,0.0,91,0.00,,,0.00,Wunderground v.1.13,2013-04-07 14:11:00,
2013-04-07 07:21:00,54.1,51.5,29.98,South,180,0.0,0.0,91,0.00,,,0.00,Wunderground v.1.13,2013-04-07 14:21:00,
2013-04-07 07:26:00,53.9,51.0,29.98,South,181,0.0,0.0,90,0.00,,,0.00,Wunderground v.1.13,2013-04-07 14:26:00,
2013-04-07 07:31:00,53.8,50.9,29.98,South,181,0.0,0.0,90,0.00,,,0.00,Wunderground v.1.13,2013-04-07 14:31:00,
2013-04-07 07:51:00,54.7,51.8,29.98,South,182,0.0,0.0,90,0.00,,,0.00,Wunderground v.1.13,2013-04-07 14:51:00,
2013-04-07 08:01:00,54.8,51.6,29.99,South,182,0.0,0.0,89,0.00,,,0.00,Wunderground v.1.13,2013-04-07 15:01:00,
2013-04-07 08:11:00,55.8,52.6,29.99,South,182,0.0,0.0,89,0.00,,,0.00,Wunderground v.1.13,2013-04-07 15:11:00,
2013-04-07 08:31:00,56.8,53.0,29.99,South,182,0.0,0.0,87,0.00,,,0.00,Wunderground v.1.13,2013-04-07 15:31:00,
2013-04-07 08:41:00,57.4,53.6,30.00,South,182,0.0,0.0,87,0.00,,,0.00,Wunderground v.1.13,2013-04-07 15:41:00,
2013-04-07 08:46:00,58.0,54.2,29.99,South,182,0.0,0.0,87,0.00,,,0.00,Wunderground v.1.13,2013-04-07 15:46:00,
2013-04-07 08:51:00,58.7,54.5,30.00,South,182,0.0,0.0,86,0.00,,,0.00,Wunderground v.1.13,2013-04-07 15:51:00,
2013-04-07 09:11:00,61.8,56.2,30.00,SSW,198,0.0,0.0,82,0.00,,,0.00,Wunderground v.1.13,2013-04-07 16:11:00,
2013-04-07 09:16:00,61.7,56.1,30.00,West,269,0.0,0.0,82,0.00,,,0.00,Wunderground v.1.13,2013-04-07 16:16:00,
2013-04-07 09:21:00,61.7,56.1,30.00,West,273,0.0,0.0,82,0.00,,,0.00,Wunderground v.1.13,2013-04-07 16:21:00,
2013-04-07 09:31:00,61.9,56.3,30.00,WNW,285,1.0,1.0,82,0.00,,,0.00,Wunderground v.1.13,2013-04-07 16:31:00,
2013-04-07 09:41:00,61.5,56.0,30.01,WNW,288,2.0,2.0,82,0.00,,,0.00,Wunderground v.1.13,2013-04-07 16:41:00,
2013-04-07 09:51:00,61.8,56.6,30.01,WNW,302,1.0,4.0,83,0.00,,,0.00,Wunderground v.1.13,2013-04-07 16:51:00,
2013-04-07 09:56:00,61.8,56.9,30.01,NW,311,2.0,2.0,84,0.00,,,0.00,Wunderground v.1.13,2013-04-07 16:56:00,
2013-04-07 10:01:00,62.0,56.4,30.01,NW,311,2.0,2.0,82,0.00,,,0.00,Wunderground v.1.13,2013-04-07 17:01:00,
2013-04-07 10:11:00,62.2,56.6,30.01,NW,317,0.0,3.0,82,0.00,,,0.00,Wunderground v.1.13,2013-04-07 17:11:00,
2013-04-07 10:26:00,62.2,57.3,30.02,NNW,344,2.0,3.0,84,0.00,,,0.00,Wunderground v.1.13,2013-04-07 17:26:00,
2013-04-07 10:31:00,62.3,57.7,30.02,NNW,338,2.0,2.0,85,0.00,,,0.00,Wunderground v.1.13,2013-04-07 17:31:00,
2013-04-07 10:41:00,62.2,57.6,30.02,NNW,329,1.0,3.0,85,0.00,,,0.00,Wunderground v.1.13,2013-04-07 17:41:00,
2013-04-07 10:51:00,62.6,58.4,30.02,NNW,338,2.0,2.0,86,0.00,,,0.00,Wunderground v.1.13,2013-04-07 17:51:00,
2013-04-07 11:01:00,62.5,57.6,30.01,NW,325,3.0,4.0,84,0.00,,,0.00,Wunderground v.1.13,2013-04-07 18:01:00,
2013-04-07 11:11:00,63.1,57.5,30.01,NNW,338,3.0,3.0,82,0.00,,,0.00,Wunderground v.1.13,2013-04-07 18:11:00,
2013-04-07 11:21:00,63.1,57.5,30.01,NNW,340,4.0,4.0,82,0.00,,,0.00,Wunderground v.1.13,2013-04-07 18:21:00,
2013-04-07 12:06:00,64.7,57.7,29.99,NNW,335,3.0,3.0,78,0.00,,,0.00,Wunderground v.1.13,2013-04-07 19:06:00,
2013-04-07 12:11:00,64.8,57.4,29.98,NNW,332,3.0,3.0,77,0.00,,,0.00,Wunderground v.1.13,2013-04-07 19:11:00,
2013-04-07 12:21:00,65.8,57.7,29.98,NNW,333,3.0,3.0,75,0.00,,,0.00,Wunderground v.1.13,2013-04-07 19:21:00,
2013-04-07 12:31:00,66.3,58.5,29.97,NNW,334,2.0,2.0,76,0.00,,,0.00,Wunderground v.1.13,2013-04-07 19:31:00,
2013-04-07 12:36:00,66.2,56.9,29.97,NNW,332,0.0,0.0,72,0.00,,,0.00,Wunderground v.1.13,2013-04-07 19:36:00,
2013-04-07 12:46:00,68.0,57.8,29.96,NNW,330,0.0,5.0,70,0.00,,,0.00,Wunderground v.1.13,2013-04-07 19:46:00,
2013-04-07 12:51:00,68.1,57.5,29.96,NNW,331,1.0,1.0,69,0.00,,,0.00,Wunderground v.1.13,2013-04-07 19:51:00,
2013-04-07 12:56:00,69.4,58.0,29.96,NNW,331,1.0,1.0,67,0.00,,,0.00,Wunderground v.1.13,2013-04-07 19:56:00,
2013-04-07 13:06:00,69.0,57.2,29.95,NNE,29,1.0,5.0,66,0.00,,,0.00,Wunderground v.1.13,2013-04-07 20:06:00,
2013-04-07 13:11:00,67.5,58.9,29.95,NNE,26,2.0,2.0,74,0.00,,,0.00,Wunderground v.1.13,2013-04-07 20:11:00,
2013-04-07 13:21:00,67.0,57.3,29.95,NNE,25,2.0,2.0,71,0.00,,,0.00,Wunderground v.1.13,2013-04-07 20:21:00,
2013-04-07 13:31:00,67.5,54.9,29.94,ENE,63,2.0,2.0,64,0.00,,,0.00,Wunderground v.1.13,2013-04-07 20:31:00,
2013-04-07 13:36:00,66.5,56.0,29.95,ENE,61,3.0,3.0,69,0.00,,,0.00,Wunderground v.1.13,2013-04-07 20:36:00,
2013-04-07 13:41:00,68.0,55.8,29.94,NE,49,2.0,2.0,65,0.00,,,0.00,Wunderground v.1.13,2013-04-07 20:41:00,
2013-04-07 13:51:00,69.1,55.1,29.94,NE,51,1.0,1.0,61,0.00,,,0.00,Wunderground v.1.13,2013-04-07 20:51:00,
2013-04-07 14:01:00,68.3,55.2,29.94,NNE,31,2.0,5.0,63,0.00,,,0.00,Wunderground v.1.13,2013-04-07 21:01:00,
2013-04-07 14:16:00,68.0,55.8,29.93,North,11,1.0,1.0,65,0.00,,,0.00,Wunderground v.1.13,2013-04-07 21:16:00,
2013-04-07 14:21:00,68.4,57.0,29.93,NNW,346,1.0,5.0,67,0.00,,,0.00,Wunderground v.1.13,2013-04-07 21:21:00,
2013-04-07 14:31:00,68.2,56.8,29.92,NNW,334,1.0,1.0,67,0.00,,,0.00,Wunderground v.1.13,2013-04-07 21:31:00,
2013-04-07 14:41:00,68.4,56.6,29.91,NW,325,3.0,4.0,66,0.00,,,0.00,Wunderground v.1.13,2013-04-07 21:41:00,
2013-04-07 14:51:00,68.6,57.2,29.90,NW,322,2.0,3.0,67,0.00,,,0.00,Wunderground v.1.13,2013-04-07 21:51:00,
2013-04-07 14:56:00,67.6,56.2,29.90,WNW,295,3.0,3.0,67,0.00,,,0.00,Wunderground v.1.13,2013-04-07 21:56:00,
2013-04-07 15:01:00,67.8,56.4,29.90,NW,306,3.0,3.0,67,0.00,,,0.00,Wunderground v.1.13,2013-04-07 22:01:00,
2013-04-07 15:11:00,66.1,56.8,29.90,NW,323,3.0,3.0,72,0.00,,,0.00,Wunderground v.1.13,2013-04-07 22:11:00,
2013-04-07 15:21:00,67.7,55.9,29.90,NW,309,1.0,1.0,66,0.00,,,0.00,Wunderground v.1.13,2013-04-07 22:21:00,
2013-04-07 15:26:00,67.4,55.6,29.89,NW,311,1.0,1.0,66,0.00,,,0.00,Wunderground v.1.13,2013-04-07 22:26:00,
2013-04-07 15:36:00,68.7,55.6,29.89,NW,313,1.0,1.0,63,0.00,,,0.00,Wunderground v.1.13,2013-04-07 22:36:00,
2013-04-07 15:41:00,69.2,54.7,29.88,NW,315,0.0,1.0,60,0.00,,,0.00,Wunderground v.1.13,2013-04-07 22:41:00,
2013-04-07 15:51:00,68.0,55.4,29.88,NNW,327,1.0,1.0,64,0.00,,,0.00,Wunderground v.1.13,2013-04-07 22:51:00,
2013-04-07 15:56:00,68.6,55.5,29.88,NW,311,0.0,0.0,63,0.00,,,0.00,Wunderground v.1.13,2013-04-07 22:56:00,
2013-04-07 16:01:00,69.3,54.8,29.88,NW,311,0.0,0.0,60,0.00,,,0.00,Wunderground v.1.13,2013-04-07 23:01:00,
2013-04-07 16:11:00,69.4,55.4,29.86,NNW,329,1.0,1.0,61,0.00,,,0.00,Wunderground v.1.13,2013-04-07 23:11:00,
2013-04-07 16:21:00,69.4,55.4,29.86,NNW,330,1.0,2.0,61,0.00,,,0.00,Wunderground v.1.13,2013-04-07 23:21:00,
2013-04-07 16:26:00,71.5,57.3,29.85,NNW,330,0.0,0.0,61,0.00,,,0.00,Wunderground v.1.13,2013-04-07 23:26:00,
2013-04-07 16:41:00,71.2,55.7,29.84,NW,304,0.0,0.0,58,0.00,,,0.00,Wunderground v.1.13,2013-04-07 23:41:00,
2013-04-07 16:51:00,70.6,56.5,29.84,WNW,292,2.0,2.0,61,0.00,,,0.00,Wunderground v.1.13,2013-04-07 23:51:00,
2013-04-07 17:06:00,72.0,56.9,29.83,NW,315,1.0,5.0,59,0.00,,,0.00,Wunderground v.1.13,2013-04-08 00:06:00,
2013-04-07 17:11:00,72.5,55.9,29.82,NW,320,2.0,2.0,56,0.00,,,0.00,Wunderground v.1.13,2013-04-08 00:11:00,
2013-04-07 17:21:00,73.3,56.2,29.82,NW,312,2.0,2.0,55,0.00,,,0.00,Wunderground v.1.13,2013-04-08 00:21:00,
2013-04-07 17:31:00,72.6,55.0,29.82,East,92,3.0,9.0,54,0.00,,,0.00,Wunderground v.1.13,2013-04-08 00:31:00,
2013-04-07 17:41:00,70.8,55.8,29.82,ESE,105,4.0,4.0,59,0.00,,,0.00,Wunderground v.1.13,2013-04-08 00:41:00,
2013-04-07 17:51:00,72.0,54.9,29.82,East,79,7.0,7.0,55,0.00,,,0.00,Wunderground v.1.13,2013-04-08 00:51:00,
2013-04-07 17:56:00,72.5,54.9,29.82,ENE,75,10.0,10.0,54,0.00,,,0.00,Wunderground v.1.13,2013-04-08 00:56:00,
2013-04-07 18:01:00,72.6,55.0,29.81,ESE,103,10.0,10.0,54,0.00,,,0.00,Wunderground v.1.13,2013-04-08 01:01:00,
2013-04-07 18:16:00,73.2,55.0,29.81,ESE,105,9.0,9.0,53,0.00,,,0.00,Wunderground v.1.13,2013-04-08 01:16:00,
2013-04-07 18:21:00,73.4,54.7,29.82,East,84,10.0,10.0,52,0.00,,,0.00,Wunderground v.1.13,2013-04-08 01:21:00,
2013-04-07 18:41:00,72.2,54.6,29.81,East,94,10.0,10.0,54,0.00,,,0.00,Wunderground v.1.13,2013-04-08 01:41:00,
2013-04-07 18:51:00,71.8,54.3,29.81,East,92,10.0,12.0,54,0.00,,,0.00,Wunderground v.1.13,2013-04-08 01:51:00,
2013-04-07 18:56:00,71.3,54.8,29.81,East,90,8.0,8.0,56,0.00,,,0.00,Wunderground v.1.13,2013-04-08 01:56:00,
2013-04-07 19:06:00,71.0,55.0,29.81,ESE,106,4.0,4.0,57,0.00,,,0.00,Wunderground v.1.13,2013-04-08 02:06:00,
2013-04-07 19:16:00,70.8,54.8,29.81,ESE,109,2.0,2.0,57,0.00,,,0.00,Wunderground v.1.13,2013-04-08 02:16:00,
2013-04-07 19:21:00,70.7,54.7,29.81,ESE,115,0.0,0.0,57,0.00,,,0.00,Wunderground v.1.13,2013-04-08 02:21:00,
2013-04-07 19:26:00,70.6,54.6,29.81,SE,141,0.0,0.0,57,0.00,,,0.00,Wunderground v.1.13,2013-04-08 02:26:00,
2013-04-07 19:31:00,70.6,54.6,29.81,SE,141,0.0,0.0,57,0.00,,,0.00,Wunderground v.1.13,2013-04-08 02:31:00,
2013-04-07 19:41:00,69.7,54.7,29.81,SE,139,0.0,0.0,59,0.00,,,0.00,Wunderground v.1.13,2013-04-08 02:41:00,
2013-04-07 19:46:00,69.5,54.5,29.81,SE,130,0.0,0.0,59,0.00,,,0.00,Wunderground v.1.13,2013-04-08 02:46:00,
2013-04-07 20:26:00,68.1,54.1,29.82,East,95,2.0,2.0,61,0.00,,,0.00,Wunderground v.1.13,2013-04-08 03:26:00,
2013-04-07 20:41:00,66.8,54.7,29.82,East,93,0.0,0.0,65,0.00,,,0.00,Wunderground v.1.13,2013-04-08 03:41:00,
2013-04-07 20:51:00,66.2,54.5,29.82,East,92,0.0,0.0,66,0.00,,,0.00,Wunderground v.1.13,2013-04-08 03:51:00,
2013-04-07 20:56:00,65.9,54.6,29.82,East,93,0.0,0.0,67,0.00,,,0.00,Wunderground v.1.13,2013-04-08 03:56:00,
2013-04-07 21:01:00,65.9,55.0,29.83,East,91,0.0,0.0,68,0.00,,,0.00,Wunderground v.1.13,2013-04-08 04:01:00,
2013-04-07 21:11:00,65.6,55.2,29.83,ENE,76,0.0,2.0,69,0.00,,,0.00,Wunderground v.1.13,2013-04-08 04:11:00,
2013-04-07 21:16:00,65.5,54.7,29.83,ENE,75,0.0,0.0,68,0.00,,,0.00,Wunderground v.1.13,2013-04-08 04:16:00,
2013-04-07 21:21:00,65.8,55.3,29.83,ENE,63,0.0,0.0,69,0.00,,,0.00,Wunderground v.1.13,2013-04-08 04:21:00,
2013-04-07 21:36:00,64.8,55.2,29.84,NW,319,1.0,4.0,71,0.00,,,0.00,Wunderground v.1.13,2013-04-08 04:36:00,
2013-04-07 21:41:00,64.5,54.9,29.84,NW,317,1.0,3.0,71,0.00,,,0.00,Wunderground v.1.13,2013-04-08 04:41:00,
2013-04-07 21:46:00,64.2,55.0,29.83,NW,318,1.0,1.0,72,0.00,,,0.00,Wunderground v.1.13,2013-04-08 04:46:00,
2013-04-07 21:51:00,64.0,55.2,29.84,NW,319,0.0,0.0,73,0.00,,,0.00,Wunderground v.1.13,2013-04-08 04:51:00,
2013-04-07 22:06:00,63.4,55.0,29.84,NNW,336,0.0,0.0,74,0.00,,,0.00,Wunderground v.1.13,2013-04-08 05:06:00,
2013-04-07 22:16:00,63.0,54.9,29.84,NNW,336,0.0,0.0,75,0.00,,,0.00,Wunderground v.1.13,2013-04-08 05:16:00,
2013-04-07 22:21:00,62.9,54.9,29.84,NNW,345,0.0,0.0,75,0.00,,,0.00,Wunderground v.1.13,2013-04-08 05:21:00,
2013-04-07 22:31:00,62.7,55.0,29.84,NNW,337,1.0,1.0,76,0.00,,,0.00,Wunderground v.1.13,2013-04-08 05:31:00,
2013-04-07 22:41:00,62.2,54.9,29.84,NNW,338,0.0,0.0,77,0.00,,,0.00,Wunderground v.1.13,2013-04-08 05:41:00,
2013-04-07 22:56:00,61.1,54.2,29.85,NNW,338,0.0,0.0,78,0.00,,,0.00,Wunderground v.1.13,2013-04-08 05:56:00,
2013-04-07 23:01:00,60.9,54.3,29.84,NNW,338,0.0,0.0,79,0.00,,,0.00,Wunderground v.1.13,2013-04-08 06:01:00,
2013-04-07 23:11:00,60.5,54.0,29.84,NNW,338,0.0,0.0,79,0.00,,,0.00,Wunderground v.1.13,2013-04-08 06:11:00,
2013-04-07 23:21:00,60.1,53.9,29.84,NNW,338,0.0,0.0,80,0.00,,,0.00,Wunderground v.1.13,2013-04-08 06:21:00,
2013-04-07 23:31:00,59.2,53.0,29.84,NNW,338,0.0,0.0,80,0.00,,,0.00,Wunderground v.1.13,2013-04-08 06:31:00,
2013-04-07 23:36:00,58.7,52.9,29.84,NNW,338,0.0,0.0,81,0.00,,,0.00,Wunderground v.1.13,2013-04-08 06:36:00,
2013-04-07 23:41:00,58.3,52.5,29.84,NNW,338,0.0,0.0,81,0.00,,,0.00,Wunderground v.1.13,2013-04-08 06:41:00,
2013-04-07 23:51:00,57.8,52.0,29.84,NNW,338,0.0,0.0,81,0.00,,,0.00,Wunderground v.1.13,2013-04-08 06:51:00,